Date String (YYYY-MM-DD hh:mm:ss) UTC,Instrument flags,Ambient pressure (hPa),Sample flow (lpm),Bypass flow (lpm),Sample temperature (°C),Ambient temperature (°C),ASC tube jacket temperature (°C),LED temperature (°C),Box temperature (°C),Sample RH (%),Span deviation,Mass concentration (μg/m³),Mass concentration (μg/m³),Mass concentration (μg/m³)
DateTimeUTC,F1_M11,P_M11,Q1_M11,Q2_M11,T1_M11,T2_M11,T3_M11,T4_M11,T5_M11,U1_M11,ZSPAN_M11,X0_M11,X2_M11,X1_M11
2022-06-30 09:00:00,,0828.1,5.00,0.00,29.9,28.8,00.0,38.6,31.7,23.4,0000.0,0004.22,0002.81,0002.18
2022-06-30 09:01:00,,0828.0,4.99,0.00,29.8,28.1,00.0,38.5,31.6,22.9,0000.0,0004.99,0002.79,0002.16
2022-06-30 09:02:00,,0828.0,5.00,0.00,29.7,27.5,00.0,38.5,31.4,22.8,0000.0,0005.19,0002.80,0002.14
2022-06-30 09:03:00,,0828.0,5.00,0.00,29.7,27.4,00.0,38.5,31.3,22.9,0000.0,0005.17,0002.77,0002.11
2022-06-30 09:04:00,,0827.9,5.00,0.00,29.6,27.4,00.0,38.4,31.3,23.1,0000.0,0005.15,0002.73,0002.08
2022-06-30 09:05:00,,0827.9,5.00,0.00,29.6,27.5,00.0,38.4,31.3,23.2,0000.0,0004.98,0002.65,0002.05
2022-06-30 09:06:00,,0827.9,5.00,0.00,29.5,27.6,00.0,38.4,31.3,23.3,0000.0,0004.98,0002.65,0002.03
2022-06-30 09:07:00,,0827.9,4.98,0.00,29.5,27.7,00.0,38.4,31.3,23.2,0000.0,0004.95,0002.65,0002.02
2022-06-30 09:08:00,,0827.9,5.00,0.00,29.5,27.9,00.0,38.4,31.3,23.5,0000.0,0004.70,0002.59,0002.02
2022-06-30 09:09:00,,0827.9,5.00,0.00,29.5,28.0,00.0,38.4,31.3,23.3,0000.0,0004.59,0002.54,0002.02
2022-06-30 09:10:00,,0827.9,5.01,0.00,29.5,28.1,00.0,38.4,31.4,23.3,0000.0,0004.55,0002.49,0001.99
2022-06-30 09:11:00,,0828.0,5.00,0.00,29.5,28.2,00.0,38.4,31.4,23.2,0000.0,0004.46,0002.45,0001.96
2022-06-30 09:12:00,,0827.9,4.99,0.00,29.5,28.2,00.0,38.4,31.4,23.3,0000.0,0003.63,0002.42,0001.95
2022-06-30 09:13:00,,0827.9,4.99,0.00,29.5,28.3,00.0,38.4,31.4,22.1,0000.0,0003.42,0002.39,0001.94
2022-06-30 09:14:00,,0828.0,5.00,0.00,29.6,28.4,00.0,38.4,31.4,22.8,0000.0,0003.36,0002.36,0001.92
2022-06-30 09:15:00,,0827.9,5.01,0.00,29.6,28.4,00.0,38.4,31.5,23.4,0000.0,0003.20,0002.32,0001.91
2022-06-30 09:16:00,,0827.9,4.99,0.00,29.6,28.5,00.0,38.4,31.5,23.2,0000.0,0003.18,0002.31,0001.90
2022-06-30 09:17:00,,0828.0,5.01,0.00,29.6,28.5,00.0,38.4,31.5,23.1,0000.0,0003.19,0002.30,0001.88
2022-06-30 09:18:00,,0828.0,5.00,0.00,29.6,28.6,00.0,38.4,31.5,23.1,0000.0,0003.20,0002.26,0001.86
2022-06-30 09:19:00,,0828.0,5.01,0.00,29.6,28.6,00.0,38.4,31.6,23.8,0000.0,0003.32,0002.23,0001.85
2022-06-30 09:20:00,,0828.0,5.01,0.00,29.7,28.7,00.0,38.4,31.6,23.0,0000.0,0003.34,0002.25,0001.84
2022-06-30 09:21:00,,0828.0,4.99,0.00,29.7,28.7,00.0,38.4,31.6,21.4,0000.0,0003.39,0002.24,0001.82
2022-06-30 09:22:00,,0828.0,4.99,0.00,29.7,28.7,00.0,38.4,31.6,21.8,0000.0,0003.38,0002.22,0001.79
2022-06-30 09:23:00,,0828.0,5.00,0.00,29.7,28.8,00.0,38.5,31.6,22.1,0000.0,0004.28,0002.20,0001.78
2022-06-30 09:24:00,,0828.0,4.99,0.00,29.7,28.8,00.0,38.5,31.7,21.9,0000.0,0004.74,0002.24,0001.78
2022-06-30 09:25:00,,0828.0,5.01,0.00,29.8,28.8,00.0,38.5,31.7,21.6,0000.0,0004.72,0002.24,0001.79
2022-06-30 09:26:00,,0828.0,4.99,0.00,29.8,28.9,00.0,38.5,31.7,21.3,0000.0,0004.89,0002.25,0001.76
2022-06-30 09:27:00,,0827.9,5.00,0.00,29.8,28.9,00.0,38.5,31.7,22.0,0000.0,0005.17,0002.25,0001.74
2022-06-30 09:28:00,,0827.9,5.00,0.00,29.8,28.9,00.0,38.5,31.8,22.6,0000.0,0005.09,0002.22,0001.74
2022-06-30 09:29:00,,0828.0,5.01,0.00,29.8,28.7,00.0,38.5,31.7,21.5,0000.0,0005.00,0002.21,0001.75
2022-06-30 09:30:00,,0827.9,5.00,0.00,29.8,28.0,00.0,38.5,31.5,21.0,0000.0,0004.83,0002.21,0001.73
2022-06-30 09:31:00,,0827.8,5.00,0.00,29.7,27.6,00.0,38.5,31.4,21.3,0000.0,0004.78,0002.18,0001.72
2022-06-30 09:32:00,,0827.9,4.99,0.00,29.7,27.5,00.0,38.5,31.3,20.9,0000.0,0004.73,0002.17,0001.71
2022-06-30 09:33:00,,0827.9,4.99,0.00,29.6,27.5,00.0,38.4,31.3,20.5,0000.0,0004.70,0002.16,0001.71
2022-06-30 09:34:00,,0827.9,4.99,0.00,29.6,27.6,00.0,38.4,31.3,20.5,0000.0,0004.21,0002.17,0001.70
2022-06-30 09:35:00,,0827.9,5.02,0.00,29.6,27.7,00.0,38.4,31.3,21.1,0000.0,0003.25,0002.07,0001.67
2022-06-30 09:36:00,,0827.8,5.00,0.00,29.5,27.9,00.0,38.4,31.3,21.0,0000.0,0003.35,0002.04,0001.64
2022-06-30 09:37:00,,0827.7,4.99,0.00,29.5,28.0,00.0,38.4,31.4,21.0,0000.0,0003.44,0002.00,0001.63
2022-06-30 09:38:00,,0827.7,4.99,0.00,29.5,28.1,00.0,38.4,31.4,20.9,0000.0,0003.33,0001.94,0001.63
2022-06-30 09:39:00,,0827.7,5.00,0.00,29.5,28.2,00.0,38.4,31.4,21.2,0000.0,0004.64,0001.95,0001.64
2022-06-30 09:40:00,,0827.7,4.99,0.00,29.6,28.3,00.0,38.4,31.4,21.8,0000.0,0004.80,0001.97,0001.61
2022-06-30 09:41:00,,0827.7,4.99,0.00,29.6,28.3,00.0,38.4,31.5,22.2,0000.0,0004.95,0001.96,0001.62
2022-06-30 09:42:00,,0827.8,5.00,0.00,29.6,28.4,00.0,38.4,31.5,21.8,0000.0,0005.41,0002.01,0001.61
2022-06-30 09:43:00,,0827.7,4.99,0.00,29.6,28.5,00.0,38.4,31.5,21.2,0000.0,0005.42,0001.98,0001.61
2022-06-30 09:44:00,,0827.7,5.01,0.00,29.6,28.5,00.0,38.4,31.5,21.1,0000.0,0005.43,0001.99,0001.63
2022-06-30 09:45:00,,0827.8,5.01,0.00,29.6,28.6,00.0,38.4,31.5,20.9,0000.0,0005.48,0002.02,0001.65
2022-06-30 09:46:00,,0827.7,5.00,0.00,29.7,28.6,00.0,38.4,31.6,21.3,0000.0,0005.66,0002.08,0001.67
2022-06-30 09:47:00,,0827.8,4.99,0.00,29.7,28.6,00.0,38.4,31.6,21.6,0000.0,0005.72,0002.15,0001.70
2022-06-30 09:48:00,,0827.7,5.00,0.00,29.7,28.7,00.0,38.5,31.6,21.7,0000.0,0005.75,0002.23,0001.73
2022-06-30 09:49:00,,0827.7,4.99,0.00,29.7,28.7,00.0,38.5,31.6,21.2,0000.0,0005.46,0002.32,0001.76
2022-06-30 09:50:00,,0827.7,5.00,0.00,29.7,28.7,00.0,38.5,31.6,20.9,0000.0,0004.53,0002.30,0001.76
2022-06-30 09:51:00,,0827.7,5.00,0.00,29.7,28.8,00.0,38.5,31.7,20.9,0000.0,0003.98,0002.26,0001.76
2022-06-30 09:52:00,,0827.7,5.01,0.00,29.8,28.8,00.0,38.5,31.7,20.8,0000.0,0003.80,0002.23,0001.75
2022-06-30 09:53:00,,0827.7,4.98,0.00,29.8,28.8,00.0,38.5,31.7,21.3,0000.0,0003.28,0002.19,0001.74
2022-06-30 09:54:00,,0827.7,5.01,0.00,29.8,28.9,00.0,38.5,31.7,20.4,0000.0,0003.20,0002.18,0001.73
2022-06-30 09:55:00,,0827.7,5.01,0.00,29.8,28.9,00.0,38.6,31.8,19.6,0000.0,0003.13,0002.14,0001.70
2022-06-30 09:56:00,,0827.8,5.01,0.00,29.8,28.5,00.0,38.5,31.7,19.4,0000.0,0003.13,0002.09,0001.66
2022-06-30 09:57:00,,0827.7,5.00,0.00,29.8,27.7,00.0,38.5,31.4,19.5,0000.0,0003.02,0002.03,0001.61
2022-06-30 09:58:00,,0827.7,5.00,0.00,29.7,27.5,00.0,38.4,31.4,21.4,0000.0,0002.88,0001.98,0001.58
2022-06-30 09:59:00,,0827.7,5.00,0.00,29.6,27.5,00.0,38.4,31.3,20.9,0000.0,0002.81,0001.92,0001.55
